Dewpoint
25 18 18 17 18 15 12 10 9 14 19 17 17 17 17 14 12 11 10 10 10 13 16 16 19 23 24 23 24 26 28 29 30 29 27 28 28 30 31 32 31 32 31 31
20 18 15 15 14 13 12 11 10 13 18 16 12 10 12 17 14 12 11 10 10 12 15 16 19 23 25 24 24 25 29 30 30 30 29 29 29 30 31 32 32 32 32 31
17 17 15 14 14 13 11 10 9 7 13 16 14 10 16 16 15 13 13 12 11 11 13 15 19 22 25 25 25 25 29 30 31 30 30 30 32 32 33 32 32 32 33 32
16 16 15 14 14 11 9 11 10 10 10 1 14 -5 7 16 14 14 13 13 13 11 13 16 18 21 23 25 25 26 28 30 30 30 30 29 29 30 31 32 32 32 33 32
11 14 13 12 13 9 10 13 10 14 14 14 13 9 5 16 15 15 15 14 14 14 12 15 18 20 22 24 25 26 29 30 30 30 30 30 30 31 32 33 33 33 34 33
16 13 12 12 11 10 13 13 18 22 19 9 14 10 9 9 12 14 16 16 15 15 12 15 18 20 22 24 24 26 29 30 30 30 30 30 30 32 33 33 33 34 33 33
17 14 10 10 10 14 14 15 8 14 17 5 14 11 12 9 13 13 13 16 17 16 15 13 16 19 21 23 25 26 29 29 30 30 31 31 31 32 32 33 33 33 33 33
12 8 13 9 9 13 13 12 9 -5 6 8 13 7 3 13 12 12 15 15 18 17 16 14 16 18 20 23 26 27 28 29 31 31 31 32 32 33 33 33 34 34 33 33
12 13 10 8 6 8 13 7 14 7 15 13 10 12 16 13 12 11 10 14 16 18 17 15 16 19 20 24 26 27 28 29 31 31 32 32 32 32 33 33 34 33 33 33
14 10 12 10 8 9 9 13 8 13 0 2 7 12 11 10 11 13 12 10 14 17 18 16 16 19 21 25 27 28 29 29 30 31 31 31 31 32 32 32 32 32 33 33
16 12 12 12 9 8 7 5 9 14 19 5 2 -5 13 7 10 11 10 12 12 13 16 17 16 19 21 25 27 28 29 29 30 31 31 31 30 31 31 31 31 31 31 32
16 14 11 12 14 13 11 7 8 5 4 13 15 7 15 14 11 14 10 12 13 15 15 17 17 19 21 24 27 28 29 29 30 31 31 30 30 30 30 30 29 30 30 31
16 13 8 10 16 15 10 10 11 21 25 17 11 6 16 12 9 11 15 15 16 15 16 18 18 18 21 23 26 27 29 29 30 30 30 30 30 30 30 29 29 29 29 29
18 14 10 10 14 18 9 10 10 13 8 8 14 11 11 12 12 15 17 16 19 19 18 17 18 18 20 22 24 26 28 29 30 30 30 30 30 30 30 29 29 29 28 28
18 13 15 16 18 18 17 14 13 10 9 9 12 13 14 15 16 15 16 20 19 18 20 18 18 18 18 21 23 26 27 28 29 29 29 29 30 30 29 29 29 29 29 28
20 14 21 17 18 19 18 17 17 15 13 13 13 12 14 15 15 18 20 17 15 17 19 18 18 18 17 19 22 25 26 27 28 28 29 29 29 29 29 29 29 30 29 29
18 16 17 14 18 19 17 18 19 18 18 16 15 15 17 17 17 19 18 15 16 16 19 18 17 18 17 17 20 23 25 27 27 27 28 29 29 29 29 29 29 29 29 29
20 18 22 19 22 17 19 20 19 18 18 19 17 17 18 18 19 21 18 18 20 18 15 15 17 18 18 18 19 22 25 26 27 27 27 28 28 28 29 29 29 29 29 29
24 22 20 19 19 19 21 20 19 18 17 20 19 19 20 20 20 19 15 20 22 19 17 18 19 21 20 18 19 21 24 25 26 26 27 28 28 28 28 28 28 29 29 28
26 27 22 23 20 17 19 20 20 18 15 18 21 20 20 20 15 17 23 25 24 23 21 18 18 20 20 19 20 21 23 24 24 26 27 28 28 28 28 28 28 29 29 28
21 23 22 22 22 22 24 21 18 16 16 20 19 19 19 19 20 22 26 26 26 25 22 19 18 18 19 21 21 20 22 23 24 26 27 28 28 28 28 28 29 29 29 29
19 20 21 22 22 20 27 20 20 21 22 19 18 19 21 22 24 25 25 27 28 27 26 24 21 20 19 20 22 21 21 23 25 26 27 28 29 28 28 28 29 29 29 29
20 21 20 21 21 24 23 24 20 23 20 20 20 21 23 24 25 25 25 26 28 29 29 28 25 23 22 20 22 20 21 24 26 26 27 28 29 29 28 28 28 29 30 30
25 26 23 23 23 24 27 23 23 22 22 22 23 23 26 25 26 26 26 25 27 29 32 31 29 28 26 24 22 22 23 25 26 26 27 28 29 29 29 29 29 29 30 30
27 27 26 26 26 27 28 29 27 24 23 22 22 25 25 26 27 28 28 27 27 30 33 33 32 30 29 28 25 24 24 26 26 26 27 27 29 30 30 30 30 30 31 31
29 27 25 24 26 25 26 27 28 27 27 26 24 26 27 28 29 29 29 29 31 35 36 35 34 32 31 31 29 27 26 27 26 26 27 28 28 30 31 31 30 34 33 34
Wind_Speed
2 2 2 2 3 3 4 4 7 4 4 8 14 20 16 25 21 21 24 24 25 26 24 21 22 21 18 16 16 14 12 11 8 4 4 3 5 4 5 5 2 2 2 2
2 3 4 3 3 3 4 5 6 4 2 6 11 24 19 21 30 31 30 27 28 24 21 21 22 21 22 21 19 16 14 13 10 7 4 4 4 5 4 3 4 5 4 3
4 1 1 3 3 3 2 3 3 4 7 6 12 12 4 5 9 20 20 21 23 29 29 24 25 26 23 22 21 18 17 15 12 10 5 3 1 2 3 5 5 6 5 6
1 1 1 2 3 3 5 1 3 6 8 5 4 7 6 4 12 17 24 25 27 28 22 23 27 25 26 25 20 18 17 16 14 13 10 9 9 9 6 6 4 6 5 8
3 1 1 3 2 1 3 3 3 2 2 5 2 3 8 3 10 21 27 28 28 27 27 28 28 29 26 21 23 22 18 17 15 15 13 12 11 9 5 5 6 5 6 6
1 1 0 2 1 1 1 1 4 4 2 3 2 3 7 6 6 7 16 25 28 27 25 24 26 23 23 20 21 22 22 20 17 18 15 15 15 13 10 9 8 7 5 7
1 2 1 0 1 1 3 3 4 2 2 4 2 4 15 11 11 8 11 19 26 25 25 25 27 25 23 26 25 23 24 23 21 20 17 17 16 15 14 12 10 8 7 6
2 4 2 1 1 1 1 2 2 5 2 5 3 8 5 5 6 7 8 10 16 23 24 26 28 28 27 26 25 24 25 23 22 21 21 18 17 16 14 13 11 11 10 11
3 4 1 0 1 0 2 2 1 1 1 3 5 8 12 5 8 6 6 6 12 20 25 26 23 25 26 25 28 28 25 23 23 23 20 20 18 17 16 15 12 12 11 11
3 4 1 1 0 1 1 2 1 1 4 5 7 8 10 5 10 13 12 14 15 17 20 22 23 25 22 23 25 24 24 27 25 23 21 19 20 18 17 15 14 14 13 11
5 3 1 1 6 6 4 3 2 2 4 3 6 7 7 5 9 7 12 18 20 19 23 24 23 22 23 21 23 25 24 24 23 22 20 20 20 19 17 16 16 15 14 12
6 4 6 7 1 2 3 5 7 4 5 4 2 13 6 6 6 4 6 10 13 20 24 24 24 23 24 26 24 25 24 24 23 22 21 22 19 18 18 18 17 15 15 13
9 3 2 4 1 0 6 7 6 5 3 10 6 11 4 6 6 5 11 15 17 15 18 20 20 26 26 25 25 25 24 25 21 21 22 22 22 21 21 19 17 15 15 14
4 6 9 14 5 5 6 9 12 9 6 11 20 27 30 27 20 25 16 22 15 16 17 19 21 25 24 24 25 24 24 22 21 22 23 24 24 23 21 19 18 16 15 14
5 8 9 16 16 9 14 13 16 21 23 23 31 24 31 26 20 24 16 14 18 19 19 17 22 23 21 22 22 21 22 23 22 23 23 25 21 19 19 19 18 17 15 15
5 6 4 10 12 14 22 18 22 25 22 26 26 32 33 28 20 11 13 12 15 17 13 14 16 17 23 25 25 22 23 24 22 24 26 21 21 21 22 20 19 17 17 16
9 8 5 17 9 9 21 26 29 23 19 21 27 34 24 23 17 13 9 7 12 14 13 13 13 19 21 23 24 26 26 21 24 24 23 22 21 22 22 21 20 20 20 16
12 9 6 6 2 17 18 3 11 19 27 23 26 26 24 19 8 8 9 6 12 12 11 10 10 13 19 19 20 19 18 22 24 23 23 21 22 23 20 21 22 21 17 20
13 13 7 9 16 19 24 24 11 13 35 18 29 28 19 9 3 8 9 6 12 12 12 12 11 12 12 17 19 19 19 20 21 23 23 22 22 22 21 23 23 21 18 18
8 3 19 8 8 12 6 4 2 3 22 15 20 20 11 7 6 5 5 6 9 8 9 11 11 8 8 11 15 19 21 21 24 23 23 21 21 23 23 23 22 19 16 20
8 7 28 24 19 14 16 9 4 9 13 4 7 7 12 7 6 3 2 4 5 7 9 9 9 9 10 7 9 17 19 25 25 19 19 21 22 24 23 22 19 20 20 18
20 17 14 9 12 22 13 8 15 10 3 5 6 7 10 6 4 6 6 7 7 9 10 9 10 12 11 5 8 16 21 22 16 19 21 21 22 21 18 22 20 19 19 20
15 18 12 19 17 8 16 12 18 7 6 8 8 8 11 9 8 6 9 10 10 9 11 10 11 13 11 8 10 16 22 14 16 18 21 21 20 20 18 20 20 17 18 18
9 8 15 8 15 23 18 21 12 13 17 12 12 13 13 12 10 11 11 13 13 12 14 10 12 16 18 12 12 19 16 13 16 20 20 18 20 20 19 18 17 18 18 18
13 16 13 14 18 14 16 19 18 18 19 15 13 12 15 12 12 12 12 13 12 14 16 13 15 17 19 16 16 16 17 16 19 20 18 19 19 19 18 20 20 20 19 20
16 14 20 22 13 19 20 17 15 17 17 20 16 13 12 11 15 12 12 12 12 15 15 15 17 16 22 20 21 18 15 17 19 20 18 18 17 16 17 17 17 19 20 21
Wind_Direction
18 16 290 292 226 259 272 265 275 265 211 206 241 258 249 208 212 214 211 211 213 213 215 202 193 187 182 179 178 187 182 184 171 161 168 171 191 201 230 239 235 220 258 313
353 246 210 238 259 280 280 292 291 297 204 223 286 280 261 209 217 212 212 213 215 216 214 206 198 191 190 189 191 192 189 185 191 178 188 192 194 224 235 236 245 240 243 255
226 288 265 317 306 303 298 293 306 295 319 250 299 289 285 224 223 213 221 218 215 212 210 207 199 200 197 196 196 195 194 191 188 188 177 195 251 264 260 236 248 244 250 247
174 327 323 316 305 346 303 20 346 331 344 289 10 291 288 260 236 222 223 219 220 216 211 202 198 203 204 206 198 194 193 191 191 185 189 204 212 221 227 226 238 259 266 256
244 211 265 271 245 30 258 349 333 346 341 329 242 235 272 336 257 242 230 225 224 216 208 203 200 203 205 200 199 197 191 190 190 190 196 203 213 226 231 238 246 258 281 268
209 335 202 195 94 1 286 31 39 34 38 284 295 221 283 219 235 260 233 227 221 218 212 205 202 200 201 198 194 189 190 195 192 193 199 206 215 221 227 238 246 260 271 281
300 225 311 106 231 58 65 19 312 300 321 257 13 215 256 269 266 260 267 236 221 215 209 204 200 201 202 198 194 190 189 197 195 198 203 209 218 221 228 236 242 248 257 260
265 304 179 44 221 249 135 149 214 286 288 299 312 245 262 293 312 314 289 263 220 212 211 208 204 202 201 197 193 189 193 200 199 203 210 213 217 222 227 233 235 241 242 251
198 275 154 79 32 129 134 228 164 297 62 279 252 275 286 270 269 285 301 285 234 218 215 215 208 204 198 194 194 194 195 201 201 206 210 216 217 220 227 233 234 240 241 250
193 284 212 318 63 99 209 155 218 40 270 265 279 273 249 342 305 263 260 254 246 235 227 221 211 204 201 198 195 194 197 200 204 207 210 217 219 219 224 232 236 237 244 248
149 191 241 312 206 183 160 222 184 149 179 244 288 272 216 264 309 272 247 250 249 240 232 225 216 207 201 197 194 198 200 203 208 210 211 214 219 220 223 230 236 236 244 248
179 164 240 239 226 195 206 210 178 197 221 215 238 275 261 260 315 260 284 294 275 251 243 229 217 205 202 202 199 201 203 206 208 209 212 217 220 221 224 230 232 235 241 247
173 200 256 298 273 146 232 216 190 129 119 230 216 259 306 289 285 274 304 312 300 282 264 239 218 212 208 206 203 203 203 208 206 204 210 216 220 222 227 229 233 235 241 245
157 185 206 234 239 148 208 216 207 185 209 241 230 264 280 277 287 297 300 312 306 300 285 248 226 218 211 207 205 204 206 204 202 204 210 216 220 221 224 228 232 234 237 239
187 238 219 250 252 255 246 231 206 211 224 239 268 257 264 274 282 292 299 305 311 306 302 272 241 221 211 207 207 207 207 201 198 204 210 217 219 219 223 226 229 232 235 236
192 240 216 262 252 241 265 235 237 231 237 248 259 269 263 276 280 271 292 317 325 317 312 310 254 224 216 213 210 207 207 204 196 205 213 214 215 219 223 226 228 231 233 237
184 200 206 261 267 282 271 245 239 241 233 238 248 254 270 271 258 270 287 307 322 321 312 312 279 236 227 219 211 209 207 198 201 208 211 210 213 218 222 224 225 229 230 235
184 184 187 261 290 250 250 236 243 246 256 230 253 260 262 259 250 243 234 277 310 310 312 315 302 266 239 226 216 213 202 200 205 209 211 208 208 217 217 221 225 228 227 233
193 176 212 228 230 277 290 278 236 222 269 236 242 253 257 230 254 283 202 266 296 295 299 299 298 289 266 231 217 205 203 205 208 213 213 209 206 213 213 221 225 226 226 231
166 203 207 193 237 261 250 279 202 154 275 253 225 245 225 170 240 257 205 303 311 299 292 308 321 322 300 262 210 204 212 209 217 217 214 208 205 211 214 219 222 222 222 232
174 205 219 225 240 264 249 229 140 259 266 302 203 195 171 196 210 188 272 290 296 300 314 317 324 316 307 302 219 225 220 221 221 214 208 205 206 211 213 215 215 222 226 230
193 185 203 196 228 264 194 114 207 222 228 192 190 197 194 207 237 262 253 273 302 319 327 330 324 320 314 284 218 239 238 237 219 210 208 210 211 213 214 215 219 222 222 229
230 204 196 192 209 231 192 211 214 195 208 215 215 212 202 206 228 253 246 250 270 294 306 313 310 307 301 277 241 252 252 227 221 216 219 216 213 215 213 212 219 221 219 224
223 183 228 212 235 242 231 231 230 210 222 216 210 202 194 218 226 243 248 251 268 288 293 301 307 303 300 290 258 249 257 232 222 225 225 219 219 219 214 213 212 214 214 220
208 175 207 244 258 270 262 241 236 236 235 232 214 203 210 215 242 245 260 262 265 279 292 294 294 292 291 293 280 267 253 228 229 229 225 220 218 219 218 216 212 214 219 212
202 198 204 234 209 224 244 237 216 221 224 224 202 201 218 219 242 249 257 265 282 297 304 305 300 296 294 298 292 283 258 229 230 228 221 219 217 215 215 219 226 225 223 214